Hobart, OK

2:38 PM CST on December 12, 2017 (GMT -0600)
Hobart Municipal

Weather History for KHBR - September, 2012

Change the Weather History Date:

Tuesday, September 4, 2012

  Actual Average Record
Temperature  
Mean Temperature 91 °F -  
Max Temperature 106 °F 89 °F 109 °F (2000)
Min Temperature 77 °F 65 °F 55 °F (2010)
Cooling Degree Days 26    
Growing Degree Days 41 (Base 50)    
Moisture  
Dew Point 59 °F    
Average Humidity 37    
Maximum Humidity 58    
Minimum Humidity 21    
Precipitation  
Precipitation 0.00 in - - ()
Sea Level Pressure  
Sea Level Pressure 29.82 in    
Wind  
Wind Speed 11 mph (South)    
Max Wind Speed 23 mph    
Max Gust Speed 36 mph    
Visibility 10 miles    
Events      
Averages and records for this station are not official NWS values.
T = Trace of Precipitation, MM = Missing Value Source: NWS Daily Summary

Daily Weather History Graph

Daily Weather History Graph

Search for Another Location

Airport or City:

Trip Planner

Search our weather history database for the weather conditions in past years. The results will help you decide how hot, cold, wet, or windy it might be!

Date:

Astronomy

Sep. 04, 2012 Rise Set
Actual Time 7:11 AM CDT 7:57 PM CDT
Civil Twilight 6:45 AM CDT 8:23 PM CDT
Nautical Twilight 6:15 AM CDT 8:53 PM CDT
Astronomical Twilight 5:44 AM CDT 9:24 PM CDT
Moon 10:05 PM CDT (9/4) 11:07 AM CDT (9/4)
Length of Visible Light 13h 37m
Length of Day
12h 46m
Waning Gibbous, 83% of the Moon is Illuminated
Sep 4
Waning Gibbous
Sep 8
Last Quarter
Sep 15
New
Sep 22
First Quarter
Sep 29
Full

Hourly Weather History & Observations

Time (CDT) Temp. Heat Index Dew Point Humidity Pressure Visibility Wind Dir Wind Speed Gust Speed Precip Events Conditions
12:53 AM 82.9 °F 82.8 °F 59.0 °F 44% 29.85 in 10.0 mi South 10.4 mph - N/A   Clear
1:53 AM 80.1 °F 80.7 °F 59.0 °F 48% 29.84 in 10.0 mi South 9.2 mph - N/A   Clear
2:53 AM 79.0 °F - 57.9 °F 48% 29.84 in 10.0 mi South 12.7 mph - N/A   Clear
3:53 AM 79.0 °F - 57.0 °F 47% 29.83 in 10.0 mi South 10.4 mph - N/A   Clear
4:53 AM 77.0 °F - 57.0 °F 50% 29.83 in 10.0 mi South 10.4 mph - N/A   Clear
5:53 AM 77.0 °F - 57.0 °F 50% 29.84 in 10.0 mi South 12.7 mph - N/A   Clear
6:53 AM 77.0 °F - 57.0 °F 50% 29.85 in 10.0 mi South 10.4 mph - N/A   Clear
7:53 AM 79.0 °F - 57.0 °F 47% 29.86 in 10.0 mi South 11.5 mph - N/A   Clear
8:53 AM 84.0 °F 83.5 °F 57.9 °F 41% 29.86 in 10.0 mi SSW 13.8 mph - N/A   Clear
9:53 AM 90.0 °F 88.8 °F 57.9 °F 34% 29.86 in 10.0 mi SW 13.8 mph - N/A   Clear
10:53 AM 95.0 °F 94.4 °F 59.0 °F 30% 29.86 in 10.0 mi SW 11.5 mph - N/A   Clear
11:53 AM 99.0 °F 99.5 °F 60.1 °F 28% 29.85 in 10.0 mi SSW 6.9 mph - N/A   Clear
12:53 PM 100.9 °F 101.6 °F 60.1 °F 26% 29.83 in 10.0 mi South 8.1 mph - N/A   Clear
1:53 PM 104.0 °F 104.6 °F 59.0 °F 23% 29.81 in 10.0 mi South 10.4 mph 23.0 mph N/A   Partly Cloudy
2:53 PM 104.0 °F 104.0 °F 57.9 °F 22% 29.79 in 10.0 mi South 10.4 mph 24.2 mph N/A   Partly Cloudy
3:53 PM 105.1 °F 105.0 °F 57.9 °F 21% 29.76 in 10.0 mi SSW 12.7 mph 23.0 mph N/A   Partly Cloudy
4:53 PM 104.0 °F 103.4 °F 57.2 °F 21% 29.82 in 10.0 mi South 15.0 mph 23.0 mph N/A   Mostly Cloudy
5:53 PM 102.9 °F 102.4 °F 57.0 °F 22% 29.74 in 10.0 mi SSW 13.8 mph 19.6 mph N/A   Clear
6:53 PM 100.9 °F 100.0 °F 57.0 °F 23% 29.73 in 10.0 mi SSW 12.7 mph - N/A   Clear
7:53 PM 97.0 °F 95.7 °F 57.0 °F 26% 29.73 in 10.0 mi South 12.7 mph - N/A   Clear
8:53 PM 91.9 °F 90.8 °F 57.9 °F 32% 29.75 in 10.0 mi South 9.2 mph - N/A   Clear
9:53 PM 89.1 °F 87.7 °F 57.0 °F 34% 29.81 in 10.0 mi Calm Calm - N/A   Clear
10:15 PM 82.4 °F 83.9 °F 64.4 °F 54% 29.89 in 10.0 mi NNE 18.4 mph 35.7 mph N/A   Scattered Clouds
10:53 PM 80.1 °F 81.7 °F 64.0 °F 58% 29.83 in 10.0 mi NNE 23.0 mph 28.8 mph N/A   Clear
11:53 PM 79.0 °F - 63.0 °F 58% 29.84 in 10.0 mi East 10.4 mph - N/A   Clear